Casper, WY

4:22 AM MDT on April 19, 2018 (GMT -0600)
Natrona County International

Weather History for KCPR - April, 2013

Change the Weather History Date:

Monday, April 22, 2013

  Actual Average Record
Temperature  
Mean Temperature 22 °F 44 °F  
Max Temperature 28 °F 59 °F 81 °F (1994)
Min Temperature 15 °F 30 °F 12 °F (1967)
Degree Days  
Heating Degree Days 43 21  
Month to date heating degree days 681 516  
Since 1 July heating degree days 6692 6889  
Cooling Degree Days 0 0  
Month to date cooling degree days 0 0  
Year to date cooling degree days 0 0  
Moisture  
Dew Point 19 °F    
Average Humidity 78    
Maximum Humidity 88    
Minimum Humidity 68    
Precipitation  
Precipitation 0.12 in 0.05 in 0.37 in (1988)
Month to date precipitation 2.42 0.87  
Year to date precipitation 4.04 2.77  
Snow  
Snow 2.70 in 0.40 in - ()
Month to date snowfall 37.8 9.1  
Since 1 July snowfall 81.0 69.4  
Snow Depth 1.00 in    
Sea Level Pressure  
Sea Level Pressure 30.20 in    
Wind  
Wind Speed 15 mph (NNE)    
Max Wind Speed 28 mph    
Max Gust Speed 33 mph    
Visibility 4 miles    
Events Fog , Snow    
T = Trace of Precipitation, MM = Missing Value Source: NWS Daily Summary

Daily Weather History Graph

Daily Weather History Graph

Search for Another Location

Airport or City:

Astronomy

Apr. 22, 2013 Rise Set
Actual Time 6:12 AM MDT 7:56 PM MDT
Civil Twilight 5:42 AM MDT 8:26 PM MDT
Nautical Twilight 5:05 AM MDT 9:03 PM MDT
Astronomical Twilight 4:26 AM MDT 9:43 PM MDT
Moon 4:44 PM MDT (4/22) 4:13 AM MDT (4/22)
Length of Visible Light 14h 44m
Length of Day
13h 44m
Waxing Gibbous, 88% of the Moon is Illuminated
Apr 22
Waxing Gibbous
Apr 25
Full
May 2
Last Quarter
May 9
New
May 17
First Quarter

Hourly Weather History & Observations

Time (MDT) Temp. Windchill Dew Point Humidity Pressure Visibility Wind Dir Wind Speed Gust Speed Precip Events Conditions
12:17 AM 30.2 °F 16.8 °F 24.8 °F 80% 30.00 in 8.0 mi North 23.0 mph 29.9 mph N/A   Overcast
12:40 AM 28.4 °F 15.1 °F 24.8 °F 86% 30.00 in 8.0 mi North 20.7 mph 27.6 mph N/A   Overcast
12:53 AM 28.0 °F 15.3 °F 24.1 °F 85% 30.01 in 6.0 mi NNE 18.4 mph 25.3 mph N/A   Overcast
1:07 AM 26.6 °F 12.4 °F 23.0 °F 86% 30.01 in 5.0 mi NNE 21.9 mph 27.6 mph 0.00 in Snow Light Snow
1:22 AM 26.6 °F 14.7 °F 23.0 °F 86% 30.01 in 2.0 mi NNE 15.0 mph 26.5 mph 0.00 in Snow Light Snow
1:29 AM 26.6 °F 13.8 °F 23.0 °F 86% 30.02 in 1.5 mi NNE 17.3 mph 21.9 mph 0.00 in Snow Light Snow
1:37 AM 26.6 °F 14.7 °F 23.0 °F 86% 30.02 in 1.5 mi NNE 15.0 mph 23.0 mph 0.00 in Snow Light Snow
1:47 AM 26.6 °F 15.2 °F 23.0 °F 86% 30.01 in 2.0 mi NNE 13.8 mph 21.9 mph 0.00 in Snow Light Snow
1:53 AM 27.0 °F 14.3 °F 23.0 °F 85% 30.01 in 2.5 mi NNE 17.3 mph 23.0 mph 0.00 in Snow Light Snow
2:02 AM 26.6 °F 13.8 °F 23.0 °F 86% 30.02 in 6.0 mi NNE 17.3 mph - 0.01 in Snow Light Snow
2:13 AM 26.6 °F 14.7 °F 21.2 °F 80% 30.03 in 10.0 mi NNE 15.0 mph - 0.01 in   Overcast
2:41 AM 26.6 °F 16.8 °F 23.0 °F 86% 30.03 in 10.0 mi NNE 10.4 mph - 0.01 in   Overcast
2:53 AM 26.1 °F 15.6 °F 21.9 °F 84% 30.03 in 7.0 mi NNE 11.5 mph - 0.01 in Snow Light Snow
3:11 AM 26.6 °F 17.5 °F 21.2 °F 80% 30.04 in 2.0 mi NNE 9.2 mph - 0.01 in Snow Light Snow
3:13 AM 26.6 °F 16.8 °F 21.2 °F 80% 30.04 in 1.8 mi NNE 10.4 mph - 0.01 in Snow Light Snow
3:26 AM 24.8 °F 13.4 °F 21.2 °F 86% 30.04 in 1.2 mi NNE 12.7 mph - 0.02 in Snow Light Snow
3:53 AM 25.0 °F 14.8 °F 21.9 °F 88% 30.06 in 1.2 mi North 10.4 mph - 0.03 in Snow Light Snow
4:50 AM 24.8 °F 11.9 °F 19.4 °F 80% 30.07 in 2.0 mi NNE 16.1 mph - 0.02 in Snow Light Snow
4:53 AM 24.1 °F 10.6 °F 19.9 °F 84% 30.08 in 2.0 mi NNE 17.3 mph - 0.02 in Snow Light Snow
5:20 AM 24.8 °F 11.9 °F 19.4 °F 80% 30.07 in 2.5 mi NNE 16.1 mph - 0.01 in Snow Light Snow
5:53 AM 23.0 °F 10.1 °F 19.0 °F 85% 30.12 in 4.0 mi NNE 15.0 mph - 0.01 in Snow Light Snow
6:15 AM 23.0 °F 11.1 °F 19.4 °F 86% 30.10 in 2.5 mi North 12.7 mph - 0.00 in Snow Light Snow
6:25 AM 23.0 °F 10.6 °F 19.4 °F 86% 30.10 in 1.2 mi NNE 13.8 mph - 0.00 in Snow Light Snow
6:42 AM 23.0 °F 10.1 °F 19.4 °F 86% 30.11 in 0.8 mi NNE 15.0 mph - 0.00 in Snow Light Snow
6:53 AM 23.0 °F 10.1 °F 19.0 °F 85% 30.18 in 0.8 mi NNE 15.0 mph - 0.00 in Snow Light Snow
7:10 AM 23.0 °F 10.6 °F 19.4 °F 86% 30.12 in 0.2 mi NNE 13.8 mph - 0.01 in Fog , Snow Snow
7:18 AM 23.0 °F 11.1 °F 19.4 °F 86% 30.12 in 0.5 mi NNE 12.7 mph - 0.02 in Fog , Snow Snow
7:38 AM 23.0 °F 11.1 °F 19.4 °F 86% 30.13 in 0.8 mi NNE 12.7 mph - 0.03 in Snow Light Snow
7:53 AM 23.0 °F 11.1 °F 19.0 °F 85% 30.21 in 1.0 mi NNE 12.7 mph - 0.03 in Snow Light Snow
8:34 AM 24.8 °F 12.4 °F 19.4 °F 80% 30.14 in 0.8 mi NNE 15.0 mph - 0.01 in Snow Light Snow
8:40 AM 24.8 °F 12.9 °F 19.4 °F 80% 30.15 in 0.8 mi NNE 13.8 mph - 0.01 in Snow Light Snow
8:53 AM 24.1 °F 11.0 °F 19.0 °F 81% 30.24 in 1.0 mi NE 16.1 mph - 0.01 in Snow Light Snow
9:17 AM 24.8 °F 14.0 °F 19.4 °F 80% 30.16 in 0.5 mi NE 11.5 mph - 0.00 in Fog , Snow Light Snow
9:30 AM 24.8 °F 13.4 °F 19.4 °F 80% 30.17 in 0.5 mi NE 12.7 mph - 0.01 in Fog , Snow Light Snow
9:39 AM 24.8 °F 12.4 °F 19.4 °F 80% 30.17 in 1.0 mi NE 15.0 mph - 0.01 in Snow Light Snow
9:44 AM 24.8 °F 11.5 °F 19.4 °F 80% 30.17 in 2.0 mi NE 17.3 mph - 0.01 in Snow Light Snow
9:53 AM 25.0 °F 11.3 °F 19.0 °F 78% 30.27 in 1.8 mi ENE 18.4 mph - 0.01 in Snow Light Snow
10:11 AM 24.8 °F 10.7 °F 19.4 °F 80% 30.18 in 0.8 mi NE 19.6 mph - 0.00 in Snow Light Snow
10:20 AM 24.8 °F 11.1 °F 19.4 °F 80% 30.19 in 0.5 mi NE 18.4 mph - 0.00 in Snow Snow
10:40 AM 24.8 °F 11.9 °F 19.4 °F 80% 30.19 in 0.8 mi NE 16.1 mph 26.5 mph 0.00 in Snow Light Snow
10:50 AM 24.8 °F 10.0 °F 17.6 °F 74% 30.20 in 1.8 mi NE 21.9 mph 26.5 mph 0.00 in Snow Light Snow
10:53 AM 25.0 °F 11.3 °F 17.1 °F 72% 30.30 in 2.5 mi ENE 18.4 mph 26.5 mph 0.00 in Snow Light Snow
11:00 AM 24.8 °F 10.7 °F 17.6 °F 74% 30.21 in 1.2 mi NE 19.6 mph 25.3 mph 0.00 in Snow Light Snow
11:16 AM 24.8 °F 9.6 °F 17.6 °F 74% 30.21 in 0.8 mi NE 23.0 mph 28.8 mph 0.00 in Snow Light Snow
11:33 AM 24.8 °F 10.0 °F 19.4 °F 80% 30.21 in 1.0 mi NE 21.9 mph - 0.00 in Snow Light Snow
11:39 AM 24.8 °F 10.0 °F 17.6 °F 74% 30.20 in 2.0 mi NE 21.9 mph 29.9 mph 0.00 in Snow Light Snow
11:50 AM 24.8 °F 10.3 °F 17.6 °F 74% 30.21 in 0.8 mi NNE 20.7 mph 27.6 mph 0.00 in Snow Light Snow
11:51 AM 24.1 °F 9.0 °F 18.0 °F 77% 30.32 in 0.8 mi NNE 21.9 mph 27.6 mph 0.00 in Snow Light Snow
12:11 PM 24.8 °F 9.6 °F 19.4 °F 80% 30.22 in 1.0 mi NNE 23.0 mph - 0.00 in Snow Light Snow
12:19 PM 24.8 °F 10.3 °F 19.4 °F 80% 30.22 in 0.5 mi NNE 20.7 mph - 0.00 in Snow Snow
12:36 PM 24.8 °F 9.6 °F 19.4 °F 80% 30.22 in 1.0 mi NNE 23.0 mph 27.6 mph 0.00 in Snow Light Snow
12:47 PM 24.8 °F 9.3 °F 19.4 °F 80% 30.22 in 1.5 mi NNE 24.2 mph 29.9 mph 0.00 in Snow Light Snow
12:53 PM 24.1 °F 8.3 °F 18.0 °F 77% 30.33 in 1.5 mi NNE 24.2 mph 29.9 mph 0.00 in Snow Light Snow
1:53 PM 24.1 °F 8.0 °F 18.0 °F 77% 30.33 in 1.5 mi NNE 25.3 mph - 0.00 in Snow Light Snow
2:19 PM 24.8 °F 9.3 °F 17.6 °F 74% 30.23 in 1.5 mi NNE 24.2 mph 31.1 mph 0.00 in   Overcast
2:22 PM 23.0 °F 6.6 °F 17.6 °F 80% 30.23 in 4.0 mi NNE 25.3 mph 31.1 mph 0.00 in   Overcast
2:53 PM 23.0 °F 7.6 °F 17.1 °F 78% 30.35 in 7.0 mi NNE 21.9 mph 28.8 mph 0.00 in   Overcast
3:53 PM 24.1 °F 9.4 °F 17.1 °F 75% 30.36 in 9.0 mi NNE 20.7 mph 27.6 mph N/A   Overcast
4:14 PM 23.0 °F 9.2 °F 15.8 °F 74% 30.25 in 2.5 mi NNE 17.3 mph - 0.00 in Snow Light Snow
4:53 PM 24.1 °F 10.6 °F 16.0 °F 71% 30.37 in 10.0 mi NNE 17.3 mph - 0.00 in   Overcast
5:53 PM 23.0 °F 9.2 °F 15.1 °F 72% 30.40 in 10.0 mi NNE 17.3 mph - N/A   Overcast
6:07 PM 23.0 °F 10.6 °F 15.8 °F 74% 30.27 in 10.0 mi NNE 13.8 mph - N/A   Overcast
6:53 PM 21.9 °F 8.7 °F 14.0 °F 72% 30.41 in 10.0 mi NNE 15.0 mph - N/A   Overcast
7:53 PM 21.0 °F 9.9 °F 14.0 °F 74% 30.43 in 10.0 mi NNE 10.4 mph - N/A   Overcast
8:53 PM 19.9 °F 7.9 °F 14.0 °F 78% 30.45 in 5.0 mi NNE 11.5 mph - 0.00 in Snow Light Snow
9:00 PM 19.4 °F 8.6 °F 14.0 °F 80% 30.30 in 9.0 mi NNE 9.2 mph - 0.00 in   Mostly Cloudy
9:07 PM 19.4 °F 8.6 °F 14.0 °F 80% 30.31 in 10.0 mi NNE 9.2 mph - 0.00 in   Scattered Clouds
9:26 PM 19.4 °F 8.6 °F 14.0 °F 80% 30.31 in 10.0 mi NNE 9.2 mph - 0.00 in   Mostly Cloudy
9:53 PM 19.0 °F 8.2 °F 14.0 °F 81% 30.46 in 10.0 mi NNE 9.2 mph - 0.00 in   Overcast
10:53 PM 18.0 °F 8.7 °F 12.9 °F 81% 30.45 in 10.0 mi NNE 6.9 mph - N/A   Overcast
11:15 PM 15.8 °F 7.2 °F 12.2 °F 86% 30.30 in 10.0 mi NNE 5.8 mph - N/A   Scattered Clouds
11:49 PM 15.8 °F 7.2 °F 10.4 °F 79% 30.29 in 10.0 mi NE 5.8 mph - N/A   Mostly Cloudy
11:53 PM 16.0 °F 6.3 °F 10.9 °F 81% 30.45 in 10.0 mi NE 6.9 mph - N/A   Mostly Cloudy